FIN165 EFHK-EFRO

Flight info

Callsign FIN165
Flight time 1h 6m
Altitude 36000
Route TEVRU4N TEVRU Y75 MIMRU DCT EVSET Y86 RENVI RENVI3D
Aircraft A320/M-SDE3FGHIRWY/LB1

Departure

Time 2026-05-07 18:17
Airport Helsinki Vantaa Airport (EFHK)

Arrival

Time 2026-05-07 19:24
Airport Rovaniemi Airport (EFRO)
Time Latitude Longitude Altitude Speed Heading
2026-05-07 17:37 60.31863 24.96997 167 ft 0 kts 242°
2026-05-07 17:51 60.31863 24.96998 167 ft 0 kts 242°
2026-05-07 18:06 60.31867 24.97014 166 ft 4 kts 243°
2026-05-07 18:06 60.31879 24.97063 166 ft 4 kts 249°
2026-05-07 18:06 60.31885 24.97113 166 ft 4 kts 282°
2026-05-07 18:07 60.31874 24.97143 166 ft 4 kts 333°
2026-05-07 18:07 60.31853 24.97166 166 ft 1 kts 333°
2026-05-07 18:07 60.31852 24.97166 166 ft 0 kts 333°
2026-05-07 18:11 60.31893 24.97124 166 ft 12 kts 333°
2026-05-07 18:11 60.32001 24.97012 166 ft 19 kts 333°
2026-05-07 18:11 60.32114 24.96887 166 ft 18 kts 329°
2026-05-07 18:11 60.32217 24.96766 166 ft 16 kts 330°
2026-05-07 18:12 60.32300 24.96668 168 ft 11 kts 330°
2026-05-07 18:12 60.32328 24.96637 170 ft 0 kts 330°
2026-05-07 18:13 60.32331 24.96632 170 ft 4 kts 330°
2026-05-07 18:13 60.32398 24.96555 175 ft 18 kts 330°
2026-05-07 18:13 60.32535 24.96394 174 ft 22 kts 330°
2026-05-07 18:13 60.32671 24.96235 172 ft 24 kts 330°
2026-05-07 18:14 60.32786 24.96101 173 ft 14 kts 330°
2026-05-07 18:14 60.32860 24.96015 174 ft 11 kts 330°
2026-05-07 18:14 60.32928 24.95936 176 ft 13 kts 330°
2026-05-07 18:14 60.33006 24.95844 180 ft 13 kts 330°
2026-05-07 18:15 60.33097 24.95718 180 ft 17 kts 318°
2026-05-07 18:15 60.33187 24.95547 182 ft 15 kts 314°
2026-05-07 18:15 60.33197 24.95374 181 ft 14 kts 238°
2026-05-07 18:15 60.33119 24.95178 177 ft 22 kts 244°
2026-05-07 18:16 60.33110 24.94872 179 ft 22 kts 272°
2026-05-07 18:16 60.33118 24.94574 187 ft 20 kts 273°
2026-05-07 18:16 60.33102 24.94368 195 ft 8 kts 235°
2026-05-07 18:16 60.33081 24.94319 202 ft 0 kts 226°
2026-05-07 18:17 60.32945 24.94028 185 ft 67 kts 227°
2026-05-07 18:17 60.32482 24.93000 175 ft 127 kts 227°
2026-05-07 18:17 60.31776 24.91456 318 ft 161 kts 227°
2026-05-07 18:17 60.31019 24.89804 1056 ft 159 kts 227°
2026-05-07 18:18 60.30327 24.88017 1605 ft 172 kts 249°
2026-05-07 18:18 60.30133 24.85538 1969 ft 190 kts 277°
2026-05-07 18:18 60.30573 24.82859 2304 ft 215 kts 295°
2026-05-07 18:18 60.31228 24.79976 2835 ft 236 kts 295°
2026-05-07 18:19 60.31920 24.76873 3563 ft 248 kts 295°
2026-05-07 18:19 60.32699 24.73732 4487 ft 252 kts 300°
2026-05-07 18:19 60.33563 24.70631 5439 ft 255 kts 301°
2026-05-07 18:19 60.34467 24.67505 6367 ft 259 kts 303°
2026-05-07 18:20 60.35655 24.64757 7218 ft 263 kts 323°
2026-05-07 18:20 60.37285 24.63076 8094 ft 267 kts 343°
2026-05-07 18:20 60.39145 24.62724 8960 ft 274 kts
2026-05-07 18:20 60.41037 24.63498 9825 ft 279 kts 11°
2026-05-07 18:21 60.42939 24.64369 10431 ft 292 kts 10°
2026-05-07 18:21 60.45002 24.65309 10691 ft 316 kts
2026-05-07 18:21 60.47226 24.66319 10923 ft 339 kts
2026-05-07 18:21 60.49605 24.67402 11086 ft 362 kts
2026-05-07 18:22 60.52112 24.68550 11518 ft 373 kts
2026-05-07 18:22 60.53834 24.69344 11960 ft 377 kts
2026-05-07 18:22 60.57259 24.70926 12792 ft 385 kts
2026-05-07 18:22 60.59893 24.72140 13440 ft 390 kts
2026-05-07 18:23 60.62556 24.73368 14064 ft 395 kts
2026-05-07 18:23 60.65248 24.74613 14643 ft 399 kts
2026-05-07 18:23 60.67970 24.75875 15227 ft 403 kts
2026-05-07 18:23 60.70717 24.77155 15807 ft 407 kts
2026-05-07 18:24 60.73494 24.78447 16390 ft 411 kts
2026-05-07 18:24 60.76295 24.79748 16964 ft 415 kts
2026-05-07 18:24 60.79125 24.81064 17521 ft 419 kts
2026-05-07 18:24 60.81982 24.82234 18057 ft 418 kts
2026-05-07 18:25 60.84876 24.82630 18580 ft 416 kts 354°
2026-05-07 18:25 60.87781 24.82759 19015 ft 420 kts 353°
2026-05-07 18:25 60.90717 24.82881 19451 ft 423 kts 353°
2026-05-07 18:25 60.93680 24.83005 19870 ft 427 kts 353°
2026-05-07 18:26 60.96658 24.83133 20352 ft 429 kts 353°
2026-05-07 18:26 60.99649 24.83271 20785 ft 431 kts 353°
2026-05-07 18:26 61.02659 24.83417 21185 ft 434 kts 353°
2026-05-07 18:26 61.05651 24.83564 21568 ft 437 kts 353°
2026-05-07 18:27 61.08702 24.83710 21941 ft 440 kts 352°
2026-05-07 18:27 61.11777 24.83857 22298 ft 443 kts 352°
2026-05-07 18:27 61.14865 24.84007 22736 ft 446 kts 353°
2026-05-07 18:27 61.17984 24.84157 23059 ft 450 kts 352°
2026-05-07 18:28 61.21129 24.84310 23397 ft 453 kts 352°
2026-05-07 18:28 61.24286 24.84463 23720 ft 455 kts 352°
2026-05-07 18:28 61.27461 24.84617 23992 ft 458 kts 352°
2026-05-07 18:28 61.30654 24.84771 24278 ft 460 kts 352°
2026-05-07 18:29 61.33857 24.84926 24550 ft 461 kts 352°
2026-05-07 18:29 61.37073 24.85084 24824 ft 463 kts 352°
2026-05-07 18:29 61.40299 24.85248 25086 ft 464 kts 352°
2026-05-07 18:29 61.43541 24.85413 25332 ft 466 kts 352°
2026-05-07 18:30 61.46793 24.85574 25633 ft 468 kts 352°
2026-05-07 18:30 61.50058 24.85732 25839 ft 470 kts 353°
2026-05-07 18:30 61.53329 24.85891 26046 ft 471 kts 353°
2026-05-07 18:30 61.56618 24.86050 26238 ft 473 kts 353°
2026-05-07 18:31 61.59906 24.86213 26473 ft 473 kts 353°
2026-05-07 18:31 61.63200 24.86383 26759 ft 472 kts 353°
2026-05-07 18:31 61.66485 24.86553 27032 ft 472 kts 353°
2026-05-07 18:31 61.69765 24.86717 27370 ft 470 kts 354°
2026-05-07 18:32 61.73028 24.86887 27708 ft 468 kts 354°
2026-05-07 18:32 61.76284 24.87052 28016 ft 467 kts 354°
2026-05-07 18:32 61.79492 24.87214 28368 ft 467 kts 354°
2026-05-07 18:32 61.82744 24.87374 28626 ft 468 kts 354°
2026-05-07 18:33 61.85998 24.87530 28904 ft 468 kts 354°
2026-05-07 18:33 61.89252 24.87689 29217 ft 468 kts 354°
2026-05-07 18:33 61.92510 24.87852 29509 ft 468 kts 354°
2026-05-07 18:33 61.95766 24.88017 29796 ft 468 kts 354°
2026-05-07 18:34 61.99017 24.88181 30109 ft 468 kts 354°
2026-05-07 18:34 62.02271 24.88344 30370 ft 467 kts 354°
2026-05-07 18:34 62.05523 24.88510 30614 ft 467 kts 354°
2026-05-07 18:34 62.08773 24.88671 30854 ft 467 kts 354°
2026-05-07 18:35 62.12014 24.88832 31140 ft 467 kts 354°
2026-05-07 18:35 62.15276 24.89000 31342 ft 469 kts 355°
2026-05-07 18:35 62.18537 24.89177 31570 ft 469 kts 355°
2026-05-07 18:35 62.21801 24.89360 31802 ft 469 kts 355°
2026-05-07 18:36 62.25068 24.89539 32046 ft 469 kts 355°
2026-05-07 18:36 62.28330 24.89707 32298 ft 469 kts 355°
2026-05-07 18:36 62.31593 24.89868 32543 ft 469 kts 355°
2026-05-07 18:36 62.34868 24.90030 32801 ft 469 kts 355°
2026-05-07 18:37 62.38136 24.90194 33035 ft 469 kts 355°
2026-05-07 18:37 62.41400 24.90365 33296 ft 469 kts 355°
2026-05-07 18:37 62.44666 24.90543 33601 ft 469 kts 355°
2026-05-07 18:37 62.47884 24.90719 33868 ft 468 kts 355°
2026-05-07 18:38 62.51135 24.90888 34113 ft 468 kts 355°
2026-05-07 18:38 62.54394 24.91053 34320 ft 468 kts 355°
2026-05-07 18:38 62.57649 24.91220 34543 ft 468 kts 355°
2026-05-07 18:38 62.60906 24.91391 34759 ft 468 kts 355°
2026-05-07 18:39 62.64158 24.91564 34971 ft 468 kts 355°
2026-05-07 18:39 62.67415 24.91739 35183 ft 467 kts 356°
2026-05-07 18:39 62.70665 24.91917 35384 ft 467 kts 356°
2026-05-07 18:39 62.73917 24.92092 35577 ft 467 kts 356°
2026-05-07 18:40 62.77175 24.92263 35786 ft 467 kts 356°
2026-05-07 18:40 62.80427 24.92435 35964 ft 467 kts 356°
2026-05-07 18:40 62.83682 24.92610 36085 ft 469 kts 356°
2026-05-07 18:41 62.90238 24.92958 36110 ft 472 kts 356°
2026-05-07 18:41 62.96764 24.93300 36111 ft 472 kts 356°
2026-05-07 18:42 63.03330 24.93654 36114 ft 472 kts 356°
2026-05-07 18:42 63.09904 24.94032 36114 ft 472 kts 356°
2026-05-07 18:43 63.16471 24.94398 36140 ft 472 kts 356°
2026-05-07 18:43 63.23048 24.94762 36146 ft 472 kts 356°
2026-05-07 18:44 63.29610 24.95129 36138 ft 471 kts 356°
2026-05-07 18:44 63.36166 24.95489 36131 ft 471 kts 356°
2026-05-07 18:45 63.42673 24.95860 36130 ft 471 kts 356°
2026-05-07 18:45 63.49223 24.96218 36142 ft 471 kts 356°
2026-05-07 18:46 63.55781 24.96582 36132 ft 471 kts 356°
2026-05-07 18:46 63.62327 24.96944 36124 ft 471 kts 356°
2026-05-07 18:47 63.67821 24.97259 36116 ft 471 kts 357°
2026-05-07 18:47 63.74370 24.97637 36111 ft 471 kts 356°
2026-05-07 18:48 63.80881 24.98002 36131 ft 471 kts 357°
2026-05-07 18:48 63.87436 24.98370 36111 ft 472 kts 357°
2026-05-07 18:49 63.94003 24.98764 36124 ft 472 kts 357°
2026-05-07 18:49 64.00560 24.99154 36123 ft 471 kts 357°
2026-05-07 18:50 64.07107 24.99533 36124 ft 470 kts 357°
2026-05-07 18:50 64.13660 24.99904 36142 ft 470 kts 357°
2026-05-07 18:51 64.20205 25.00296 36130 ft 471 kts 357°
2026-05-07 18:51 64.26752 25.00701 36120 ft 471 kts 357°
2026-05-07 18:52 64.33297 25.01093 36113 ft 471 kts 357°
2026-05-07 18:52 64.39847 25.01469 36112 ft 471 kts 357°
2026-05-07 18:53 64.46398 25.01862 36138 ft 471 kts 357°
2026-05-07 18:53 64.52810 25.02277 36112 ft 445 kts 357°
2026-05-07 18:53 64.55845 25.02485 36112 ft 429 kts 357°
2026-05-07 18:54 64.58777 25.02674 36110 ft 416 kts 357°
2026-05-07 18:54 64.64627 25.03000 36114 ft 428 kts 356°
2026-05-07 18:55 64.70669 25.03326 35665 ft 442 kts 357°
2026-05-07 18:55 64.76827 25.03712 35506 ft 441 kts 357°
2026-05-07 18:56 64.82957 25.04097 35342 ft 440 kts 358°
2026-05-07 18:56 64.89067 25.04464 35173 ft 438 kts 358°
2026-05-07 18:57 64.95154 25.04855 34977 ft 436 kts 358°
2026-05-07 18:57 65.01209 25.05245 34807 ft 434 kts 358°
2026-05-07 18:58 65.07237 25.05623 34635 ft 433 kts 358°
2026-05-07 18:58 65.13251 25.05998 34478 ft 431 kts 358°
2026-05-07 18:59 65.19247 25.06384 34310 ft 430 kts 358°
2026-05-07 18:59 65.25212 25.06769 34135 ft 428 kts 358°
2026-05-07 19:00 65.31153 25.07137 33938 ft 426 kts 358°
2026-05-07 19:00 65.34116 25.07324 33834 ft 425 kts 358°
2026-05-07 19:00 65.37068 25.07515 33727 ft 424 kts 358°
2026-05-07 19:01 65.42965 25.07906 33533 ft 423 kts 358°
2026-05-07 19:01 65.48807 25.08294 33352 ft 421 kts 358°
2026-05-07 19:02 65.54645 25.08674 33159 ft 419 kts 358°
2026-05-07 19:02 65.57557 25.08867 32992 ft 417 kts 358°
2026-05-07 19:02 65.60442 25.09054 32534 ft 413 kts 358°
2026-05-07 19:02 65.63318 25.09243 32080 ft 409 kts 358°
2026-05-07 19:03 65.66153 25.09431 31636 ft 405 kts 358°
2026-05-07 19:03 65.68958 25.09615 31138 ft 399 kts 358°
2026-05-07 19:03 65.71715 25.09794 30395 ft 394 kts 358°
2026-05-07 19:03 65.74437 25.09972 29570 ft 388 kts 358°
2026-05-07 19:04 65.77118 25.10147 28758 ft 382 kts 359°
2026-05-07 19:04 65.79714 25.10317 28005 ft 375 kts 359°
2026-05-07 19:04 65.82326 25.10495 27456 ft 362 kts 359°
2026-05-07 19:04 65.84737 25.10663 27232 ft 343 kts 360°
2026-05-07 19:05 65.87096 25.10826 26627 ft 336 kts 360°
2026-05-07 19:05 65.89428 25.10979 25766 ft 337 kts
2026-05-07 19:05 65.91776 25.11130 24922 ft 337 kts
2026-05-07 19:05 65.94109 25.11282 24270 ft 332 kts
2026-05-07 19:06 65.96398 25.11433 23576 ft 327 kts
2026-05-07 19:06 66.00896 25.11735 21872 ft 323 kts
2026-05-07 19:06 66.03132 25.11888 21119 ft 319 kts
2026-05-07 19:07 66.05342 25.12038 20441 ft 315 kts
2026-05-07 19:07 66.07517 25.12185 19756 ft 311 kts
2026-05-07 19:07 66.09668 25.12450 19116 ft 307 kts
2026-05-07 19:07 66.11741 25.13234 18462 ft 305 kts 12°
2026-05-07 19:08 66.13800 25.14567 17613 ft 307 kts 16°
2026-05-07 19:08 66.15851 25.16081 16766 ft 308 kts 16°
2026-05-07 19:08 66.17904 25.17591 15943 ft 308 kts 15°
2026-05-07 19:08 66.19963 25.19103 15185 ft 307 kts 16°
2026-05-07 19:09 66.21980 25.20587 14713 ft 298 kts 15°
2026-05-07 19:09 66.23941 25.22032 14239 ft 290 kts 15°
2026-05-07 19:09 66.25852 25.23446 13776 ft 283 kts 16°
2026-05-07 19:09 66.27705 25.24818 13406 ft 271 kts 15°
2026-05-07 19:10 66.29506 25.26149 12872 ft 267 kts 15°
2026-05-07 19:10 66.31278 25.27465 12243 ft 267 kts 15°
2026-05-07 19:10 66.33046 25.28786 11705 ft 263 kts 15°
2026-05-07 19:10 66.34793 25.30090 11170 ft 260 kts 15°
2026-05-07 19:11 66.36513 25.31371 10655 ft 256 kts 15°
2026-05-07 19:11 66.38213 25.32638 10131 ft 253 kts 15°
2026-05-07 19:11 66.39890 25.33894 9587 ft 250 kts 15°
2026-05-07 19:11 66.41543 25.35139 9033 ft 247 kts 15°
2026-05-07 19:12 66.43175 25.36369 8489 ft 243 kts 15°
2026-05-07 19:12 66.44790 25.37582 7953 ft 241 kts 15°
2026-05-07 19:12 66.46416 25.38985 7486 ft 255 kts 22°
2026-05-07 19:12 66.48009 25.41067 7090 ft 261 kts 31°
2026-05-07 19:13 66.49485 25.43709 6720 ft 260 kts 35°
2026-05-07 19:13 66.50919 25.46395 6331 ft 259 kts 35°
2026-05-07 19:13 66.52361 25.49097 5927 ft 259 kts 35°
2026-05-07 19:13 66.53798 25.51792 5525 ft 257 kts 35°
2026-05-07 19:14 66.55231 25.54488 5125 ft 256 kts 35°
2026-05-07 19:14 66.56652 25.57167 4734 ft 255 kts 35°
2026-05-07 19:14 66.58062 25.59830 4323 ft 253 kts 36°
2026-05-07 19:14 66.59467 25.62484 3928 ft 251 kts 35°
2026-05-07 19:15 66.60854 25.65108 3778 ft 250 kts 36°
2026-05-07 19:15 66.62239 25.67740 3644 ft 250 kts 36°
2026-05-07 19:15 66.63624 25.70378 3518 ft 249 kts 36°
2026-05-07 19:15 66.65002 25.73016 3379 ft 249 kts 36°
2026-05-07 19:16 66.66380 25.75656 3257 ft 248 kts 36°
2026-05-07 19:16 66.67756 25.78292 3124 ft 248 kts 36°
2026-05-07 19:16 66.69128 25.80929 2991 ft 248 kts 36°
2026-05-07 19:16 66.70495 25.83557 2862 ft 244 kts 36°
2026-05-07 19:17 66.71792 25.86053 2715 ft 224 kts 36°
2026-05-07 19:17 66.72981 25.88340 2610 ft 207 kts 36°
2026-05-07 19:17 66.73913 25.90976 2543 ft 197 kts 60°
2026-05-07 19:17 66.74309 25.94119 2504 ft 181 kts 84°
2026-05-07 19:18 66.74213 25.97137 2496 ft 164 kts 106°
2026-05-07 19:18 66.73764 25.99644 2501 ft 153 kts 125°
2026-05-07 19:18 66.73128 26.01758 2508 ft 149 kts 128°
2026-05-07 19:18 66.72504 26.03822 2510 ft 147 kts 128°
2026-05-07 19:19 66.71861 26.05821 2515 ft 146 kts 139°
2026-05-07 19:19 66.71008 26.07160 2517 ft 145 kts 162°
2026-05-07 19:19 66.70027 26.07555 2517 ft 143 kts 186°
2026-05-07 19:19 66.69082 26.06934 2510 ft 139 kts 218°
2026-05-07 19:20 66.68317 26.05503 2532 ft 137 kts 217°
2026-05-07 19:20 66.67535 26.04127 2524 ft 137 kts 218°
2026-05-07 19:20 66.66767 26.02713 2518 ft 137 kts 219°
2026-05-07 19:20 66.66005 26.01276 2513 ft 136 kts 219°
2026-05-07 19:21 66.65247 25.99834 2513 ft 136 kts 220°
2026-05-07 19:21 66.64500 25.98402 2415 ft 137 kts 220°
2026-05-07 19:21 66.63746 25.96957 2237 ft 136 kts 220°
2026-05-07 19:21 66.62998 25.95521 2062 ft 135 kts 220°
2026-05-07 19:22 66.62253 25.94090 1872 ft 134 kts 220°
2026-05-07 19:22 66.61513 25.92672 1694 ft 133 kts 219°
2026-05-07 19:22 66.60774 25.91256 1474 ft 134 kts 219°
2026-05-07 19:22 66.60033 25.89841 1282 ft 134 kts 219°
2026-05-07 19:23 66.59291 25.88428 1097 ft 134 kts 219°
2026-05-07 19:23 66.58549 25.87006 918 ft 135 kts 219°
2026-05-07 19:23 66.57805 25.85577 706 ft 135 kts 218°
2026-05-07 19:23 66.57083 25.84191 620 ft 116 kts 218°
2026-05-07 19:24 66.56590 25.83245 633 ft 65 kts 217°
2026-05-07 19:24 66.56370 25.82830 636 ft 28 kts 217°
2026-05-07 19:24 66.56259 25.82720 637 ft 11 kts 142°
2026-05-07 19:24 66.56224 25.82845 639 ft 8 kts 122°
2026-05-07 19:25 66.56185 25.82969 636 ft 9 kts 157°
2026-05-07 19:25 66.56140 25.82935 635 ft 7 kts 213°
2026-05-07 19:25 66.56092 25.82846 632 ft 11 kts 218°
2026-05-07 19:25 66.56030 25.82732 628 ft 11 kts 211°
2026-05-07 19:26 66.55958 25.82789 625 ft 9 kts 149°
2026-05-07 19:26 66.55928 25.82814 625 ft 4 kts 164°
2026-05-07 19:26 66.55910 25.82828 627 ft 2 kts 163°
2026-05-07 19:26 66.55904 25.82832 628 ft 0 kts 163°